TimeMST,TemperatureF,Dew PointF,Humidity,Sea Level PressureIn,VisibilityMPH,Wind Direction,Wind SpeedMPH,Gust SpeedMPH,PrecipitationIn,Events,Conditions,WindDirDegrees,DateUTC
12:53 AM,23.0,12.0,63,29.80,10.0,West,6.9,-,N/A,,Clear,260,2012-12-12 07:53:00
1:53 AM,26.1,12.9,58,29.78,10.0,SW,15.0,-,N/A,,Clear,220,2012-12-12 08:53:00
2:53 AM,26.1,12.9,58,29.79,10.0,SSW,10.4,-,N/A,,Clear,210,2012-12-12 09:53:00
3:53 AM,28.0,12.9,53,29.73,10.0,WSW,31.1,43.7,N/A,,Clear,240,2012-12-12 10:53:00
4:53 AM,27.0,12.9,56,29.78,10.0,South,24.2,31.1,N/A,,Clear,190,2012-12-12 11:53:00
5:53 AM,25.0,12.0,58,29.80,10.0,SSW,21.9,-,N/A,,Clear,210,2012-12-12 12:53:00
6:53 AM,24.1,12.0,60,29.78,10.0,SSW,27.6,-,N/A,,Clear,210,2012-12-12 13:53:00
7:53 AM,25.0,12.0,58,29.80,10.0,SSW,18.4,-,N/A,,Clear,200,2012-12-12 14:53:00
8:53 AM,30.9,14.0,50,29.77,10.0,SW,19.6,-,N/A,,Clear,220,2012-12-12 15:53:00
9:53 AM,35.1,14.0,42,29.77,10.0,SW,29.9,35.7,N/A,,Clear,220,2012-12-12 16:53:00
10:53 AM,37.9,12.9,36,29.73,10.0,SW,25.3,29.9,N/A,,Clear,220,2012-12-12 17:53:00
11:53 AM,41.0,14.0,33,29.67,10.0,SW,34.5,44.9,N/A,,Clear,220,2012-12-12 18:53:00
12:53 PM,42.1,14.0,32,29.69,10.0,SW,32.2,40.3,N/A,,Clear,230,2012-12-12 19:53:00
1:53 PM,42.1,12.9,31,29.72,10.0,WSW,29.9,36.8,N/A,,Clear,250,2012-12-12 20:53:00
2:53 PM,39.9,12.9,33,29.75,10.0,WSW,26.5,36.8,N/A,,Clear,250,2012-12-12 21:53:00
3:53 PM,37.9,12.9,36,29.78,10.0,WSW,17.3,29.9,N/A,,Clear,240,2012-12-12 22:53:00
4:53 PM,33.1,12.9,43,29.83,10.0,SW,15.0,-,N/A,,Clear,230,2012-12-12 23:53:00
5:53 PM,30.9,12.9,47,29.88,10.0,WSW,13.8,18.4,N/A,,Clear,250,2012-12-13 00:53:00
6:53 PM,27.0,12.0,53,29.90,10.0,WSW,9.2,-,N/A,,Clear,240,2012-12-13 01:53:00
7:53 PM,28.0,12.9,53,29.90,10.0,South,6.9,-,N/A,,Clear,170,2012-12-13 02:53:00
8:53 PM,28.9,12.9,51,29.89,10.0,Variable,6.9,-,N/A,,Clear,0,2012-12-13 03:53:00
9:53 PM,30.0,12.9,49,29.88,10.0,WSW,5.8,19.6,N/A,,Clear,240,2012-12-13 04:53:00
10:53 PM,30.0,12.9,49,29.87,10.0,SSW,12.7,18.4,N/A,,Clear,200,2012-12-13 05:53:00
11:53 PM,28.0,12.9,53,29.87,10.0,Variable,4.6,-,N/A,,Clear,0,2012-12-13 06:53:00